Regional Weather Roundup
Issued by NWS

Home | Current Version | Previous Version | Text Only | Print | Product List | Glossary Off
Versions: 1 2 3 4 5 6 7 8 9 10 11 12 13 14 15 16 17 18 19 20 21 22 23 24 25 26 27 28 29 30 31 32 33 34 35 36 37 38 39 40 41 42 43 44 45 46 47 48 49 50

053
ASUS43 KMKX 221400
RWRWI

WISCONSIN REGIONAL WEATHER ROUNDUP
NATIONAL WEATHER SERVICE MILWAUKEE/SULLIVAN WI
900 AM CDT SUN OCT 22 2017

NOTE: "FAIR" INDICATES FEW OR NO CLOUDS BELOW 12,000 FEET WITH NO
SIGNIFICANT WEATHER AND/OR OBSTRUCTIONS TO VISIBILITY.

WIZ001-002-006>008-014>016-023>028-221500-
NORTHWEST WISCONSIN

CITY           SKY/WX    TMP DP  RH WIND       PRES   REMARKS
SUPERIOR ARPT  CLOUDY    47  43  84 SW9       29.87R
ASHLAND        CLOUDY    50  42  74 SW12      29.89R
HAYWARD        PTSUNNY   48  41  76 VRB3      29.92R
SIREN          CLOUDY    47  40  76 W7        29.93R
CUMBERLAND     PTSUNNY   46  39  76 SW7       29.94R
RICE LAKE      PTSUNNY   48  42  77 W5        29.95R
CHETEK         CLOUDY    48  42  77 W6        29.94R
LADYSMITH      CLOUDY    49  44  85 SW6       29.94R
EAU CLAIRE     NOT AVBL
MENOMONIE      CLOUDY    50  42  74 W8        29.95R
NEW RICHMOND   CLOUDY    48  39  71 W7        29.95R
OSCEOLA        CLOUDY    48  41  78 W6        29.98R
$$

WIZ003>005-009-010-017-018-221500-
NORTH CENTRAL WISCONSIN

CITY           SKY/WX    TMP DP  RH WIND       PRES   REMARKS
MANITOWISH WTR DRIZZLE   47  47 100 SW6       29.89S
ARBOR VITAE    LGT RAIN  52  50  93 W8        29.90R
WOODRUFF       LGT RAIN  52  50  93 W8        29.90R
RHINELANDER    CLOUDY    50  49  96 W8        29.93R
EAGLE RIVER    NOT AVBL
LAND O LAKES   CLOUDY    49  46  89 W3        29.91R
PHILLIPS       DRIZZLE   47  46  97 SW6       29.90S
TOMAHAWK       CLOUDY    48  46  90 W3        29.93R
MEDFORD        DRIZZLE   47  45  91 W7        29.91S
MERRILL        CLOUDY    51  49  95 NW5       29.93R
$$

WIZ029-030-035-036-043>047-221500-
CENTRAL WISCONSIN

CITY           SKY/WX    TMP DP  RH WIND       PRES   REMARKS
WAUSAU         LGT RAIN  50  47  89 W9        29.91R
MOSINEE        CLOUDY    50  50 100 W7        29.95R
MARSHFIELD     CLOUDY    50  45  83 W9        29.93R
STEVENS POINT  RAIN      49  48  97 W5        29.94R
WAUPACA        RAIN      56  53  90 W9        29.92R
WAUTOMA        LGT RAIN N/A N/A N/A NW6       29.93S
WISC RAPIDS    LGT RAIN  51  50  96 NW5       29.95R
CAMP DOUGLAS   NOT AVBL
$$

WIZ011>013-019>022-031-037>040-048>050-221500-
NORTHEAST WISCONSIN

CITY           SKY/WX    TMP DP  RH WIND       PRES   REMARKS
ANTIGO         DRIZZLE   50  48  93 W12G20    29.92R
SHAWANO        RAIN      60  54  82 W14G24    29.89R
OCONTO         CLOUDY    61  56  82 S6        29.86S
STURGEON BAY   LGT RAIN  60  55  83 S17G24    29.90R
GREEN BAY      RAIN      62  61  96 S9        29.88R FOG
MANITOWOC      CLOUDY    60  55  83 S9        29.91R
APPLETON       CLOUDY    63  59  88 W7        29.87R
CLINTONVILLE   LGT RAIN  55  52  88 W12       29.91R
OSHKOSH        LGT RAIN  62  61  96 S12       29.89R
$$

WIZ032>034-041-042-053>061-221500-
SOUTHWEST WISCONSIN

CITY           SKY/WX    TMP DP  RH WIND       PRES   REMARKS
LA CROSSE      CLOUDY    53  47  79 W5        29.97R
SPARTA         CLOUDY    49  47  94 W6        29.97R
VIROQUA        CLOUDY    49  48  97 NW7       29.95R
BOSCOBEL       CLOUDY    53  49  86 CALM      29.98R
PRAIRIE DU CHI CLOUDY    52  47  83 NW5       29.97R
PLATTEVILLE    CLOUDY    52  52 100 NW8       29.95S
$$

WIZ056-057-062-063-064-067-068-221500-
SOUTH CENTRAL WISCONSIN

CITY           SKY/WX    TMP DP  RH WIND       PRES   REMARKS
REEDSBURG      DRIZZLE   51  51 100 NW3       29.94S
BARABOO/DELLS  LGT RAIN  52  50  92 NW6       29.94R
LONE ROCK      NOT AVBL
MINERAL POINT  LGT RAIN  52  52 100 NW8       29.94R
MADISON        LGT RAIN  55  53  93 NW13G18   29.92R FOG
MIDDLETON      CLOUDY    55  55 100 NW9       29.94R
WATERTOWN      LGT RAIN  61  61 100 S6        29.90R
MONROE         CLOUDY    54  54 100 NW9       29.91S FOG
JANESVILLE     CLOUDY    63  63 100 S9        29.90R
$$

WIZ051-052-058>065-066-070>072-221500-
SOUTHEAST WISCONSIN

CITY           SKY/WX    TMP DP  RH WIND       PRES   REMARKS
MILWAUKEE      CLOUDY    63  58  83 SE6       29.92F
WAUKESHA       CLOUDY    63  55  77 S7        29.92F
MILWAUKEE/TIMM PTSUNNY   66  55  68 S9        29.92S
RACINE         PTSUNNY   62  57  83 S9        29.95S
BURLINGTON     CLOUDY    66  60  81 S9        29.92S
KENOSHA        CLOUDY    67  58  72 S12       29.93S
FOND DU LAC    LGT RAIN  63  59  87 S8        29.89S
SHEBOYGAN      PTSUNNY   61  57  87 S8        29.91R
WEST BEND      CLOUDY    63  59  88 S9        29.91S
JUNEAU         RAIN      61  60  96 S9        29.92R
$$

LSZ147-162-221500-
LAKE SUPERIOR

STATION/POSITION TIME  TEMP    WIND        PRES    WAVE
                       AIR SEA DIR/SP/G            HT/PER
                 (UTC) (F)     (DEG/KT/KT) (MB)    (FT/S)
W MID LAKE BUOY  1250   53 52              1008.7R   5/ 6
DEVILS ISLAND    1300   52     230/ 22/ 24 1010.1R
PORT WING        1240          210/  8/ 23 1010.8
SAXON HARBOR     1340   53     200/  7/ 12 1011.5R
$$

LMZ867-665-643>646-221500-
LAKE MICHIGAN

STATION/POSITION TIME  TEMP    WIND        PRES    WAVE
                       AIR SEA DIR/SP/G            HT/PER
                 (UTC) (F)     (DEG/KT/KT) (MB)    (FT/S)
S GREEN BAY BUOY 1330   61 58  180/ 14/ 17 1011.2R
N MID LAKE BUOY  1250   62 58  180/ 19/ 23 1012.4R   7/ 7
NORTHPORT PIER   1340   60     160/  9/ 19 1012.2R
KEWAUNEE LAKESHO 1330   53     180/ 12/ 14 1011.9R
SHEBOYGAN LAKESH 1300   56     180/ 19/ 21 1012.6R
PORT WASHINGTON  1340   56     190/  6/  9 1014.2R
ATWATER BUOY     1209   56 52  160/ 10/ 14 1013.1R
MILWAUKEE LAKESH 1330   56     140/ 11/ 12   N/A
S MID LAKE BUOY  1250   63 61  140/ 19/ 25 1014.2R   4/ 5
KENOSHA   LAKESH 1300   57     170/ 14/ 16 1013.5
$$

TC  - TEMPERATURE IN CELSIUS
VSB - VISIBILITY IN STATUTE MILES
WCI - WIND CHILL INDEX
HX  - HEAT INDEX





USA.gov is the U.S. government's official web portal to all federal, state and local government web resources and services.